Viktor Babenko

Chefscout - Nyva
17 Jul 2027
Samstag
Verarbeitung

Persönlichkeit

Anpassungsfähigkeit (5) Ehrgeiz (10) Kontroverse (16) Loyalität (13) Druck (6) Professionalität (20) Fairness (16) Temperament (1)

Profil

Trainerstil Demokratisch
Lizenz Kontinentale Pro
Entschlossenheit 4
Menschenführung 3
Motivation 8
Disziplin 8
Arbeitszufriedenheit
59%
Ermüdung
0%
Rolle Chefscout
Gehalt 30.9K p/W
Vertrag 14.03.2028

Leistung

Verhalten Gut
Trainingseffektivität
18%
Spielerentwicklung
25%
Verletzungsprävention
20%
Taktische Umsetzung
35%

Letzte Ereignisse

Nahm an einer Scouting-Besprechung teil jetzt
Empfahl ein Transferziel jetzt
Empfahl ein Transferziel jetzt
Empfahl ein Transferziel jetzt
Empfahl ein Transferziel jetzt
Nahm an einer Scouting-Besprechung teil jetzt
Nahm an einer Scouting-Besprechung teil jetzt
Legte dem Vorstand ein Dossier vor 7T her

Aktuell beobachtet

133
Spieler Verein Status Fähigkeit Vertrauen Beobachtet Zuletzt beobachtet Letzte Stimme
Kane Drummond Oldham Athletic Aktiv 86 / 85 40% 3 14.07.2027 -
Giuseppe Panico Foggia Aktiv 121 / 122 40% 1 14.07.2027 -
Jacopo Manconi Casertana Aktiv 115 / 100 40% 4 07.07.2027 -
Rui Costa Port Vale Aktiv 118 / 103 40% 1 07.07.2027 -
Denys Chervinskyi Metalurh Zaporizhzhia Aktiv 67 / 61 58% 1 05.07.2027 Befürworten
Denys Bezborodko Chernihiv Aktiv 93 / 87 58% 1 28.06.2027 Befürworten
Volodymyr Ivanychuk Probiy Aktiv 88 / 103 58% 1 21.06.2027 Befürworten
Roman Kovaliuk Feniks Aktiv 82 / 92 58% 1 14.06.2027 Befürworten
Jeffrey Sulemana Hasaacas Aktiv 79 / 94 40% 5 12.06.2027 -
Ibourahima Baldé Giugliano Aktiv 85 / 83 40% 2 12.06.2027 -
Samuel Tetteh Ashanti Gold Aktiv 103 / 111 40% 2 10.06.2027 Mehr Infos nötig
Luciano Inverso Rentistas Aktiv 115 / 121 40% 1 10.06.2027 Mehr Infos nötig
Dmytro Shcherbak Prykarpattia Aktiv 106 / 90 40% 6 09.06.2027 -
Sam Hoskins Northampton Town Aktiv 113 / 126 40% 2 09.06.2027 -
George Lloyd Shrewsbury Town Aktiv 84 / 75 40% 3 08.06.2027 -
Davis Mensah Cittadella Aktiv 120 / 130 40% 1 07.06.2027 Mehr Infos nötig
Volodymyr Odariuk Poltava Aktiv 92 / 86 40% 1 07.06.2027 -
Siaka Diaby Stade Malien Aktiv 88 / 116 40% 1 06.06.2027 -
Alberto Spagnoli Union Brescia Aktiv 95 / 105 40% 1 06.06.2027 -
Vasyl Lutsiv Metalist Aktiv 72 / 72 40% 3 04.06.2027 -
Mattia Finotto Carrarese Aktiv 117 / 132 40% 1 04.06.2027 -
Cosimo Chiricò Casarano Aktiv 84 / 114 40% 1 03.06.2027 -
Manuel Fischnaller Ravenna Aktiv 114 / 130 40% 1 03.06.2027 -
Thomas Agyepong Berekum Chelsea Aktiv 84 / 83 40% 1 02.06.2027 -
Facundo Castelli Estudiantes Aktiv 126 / 109 40% 1 02.06.2027 -
Vladyslav Nekhtiy Metalurh Zaporizhzhia Aktiv 87 / 70 40% 3 25.05.2027 -
Eric Lanini Novara Aktiv 103 / 110 40% 3 25.05.2027 -
Antonio Cioffi Latina Aktiv 101 / 87 40% 1 23.05.2027 -
Harrison Inusah BA All Stars Aktiv 94 / 119 40% 1 22.05.2027 -
Manuele Malotti Livorno Aktiv 93 / 111 40% 1 19.05.2027 -
Ollie Palmer Swindon Town Aktiv 109 / 97 40% 2 18.05.2027 -
Wasiu Jimoh WAFA Aktiv 88 / 95 40% 1 16.05.2027 -
Danylo Honcharuk Probiy Aktiv 90 / 79 40% 3 14.05.2027 -
Jordan Hugill Barnet Aktiv 101 / 80 40% 2 13.05.2027 -
Ivan Bendera Epicentr Aktiv 103 / 85 40% 2 08.05.2027 -
Maksym Voitikhovskyi Bukovyna Aktiv 102 / 113 40% 4 07.05.2027 -
Bohdan Mohylnyi Inhulets Aktiv 86 / 91 40% 4 07.05.2027 -
Simone Verdi Benevento Aktiv 126 / 134 40% 1 05.05.2027 -
Luigi Samele Giana Erminio Aktiv 89 / 108 40% 1 03.05.2027 -
Eljon Toci Dolomiti Bellunesi Aktiv 106 / 118 40% 1 03.05.2027 -
Kwame Addo WAFA Aktiv 82 / 110 40% 2 01.05.2027 -
Diego Ríos Guidonia Montecelio Aktiv 101 / 66 40% 1 30.04.2027 -
Roman Kuzmyn Ahrobiznes Aktiv 92 / 79 40% 2 29.04.2027 -
Hugo Oviedo Cheltenham Town Aktiv 81 / 89 40% 1 29.04.2027 -
Lorenzo Insigne Sampdoria Aktiv 115 / 113 40% 2 27.04.2027 -
Cosimo Patierno Casarano Aktiv 99 / 114 40% 1 27.04.2027 -
Lamine Diakité Djoliba Aktiv 115 / 112 40% 2 25.04.2027 -
Mayron de Almeida Pontedera Aktiv 89 / 99 40% 1 24.04.2027 -
Vadym Sydun Epicentr Aktiv 98 / 105 40% 3 23.04.2027 -
Sulayman Jallow Vis Pesaro Aktiv 87 / 78 40% 1 23.04.2027 -
Javi Zarzo Gubbio Aktiv 115 / 102 40% 1 21.04.2027 -
Anatole Abang Cotonsport Garoua Aktiv 127 / 121 40% 3 20.04.2027 -
Jeffrey Adjei Wa All Stars Aktiv 83 / 74 40% 3 14.04.2027 -
Nikos Karelis Sliema Wanderers Aktiv 102 / 91 40% 1 14.04.2027 -
Xiscu Martínez Cavese Aktiv 102 / 69 40% 1 13.04.2027 -
Jonah James New Edubiase United Aktiv 88 / 80 40% 1 12.04.2027 -
Vladyslav Voitsekhovskyi Vorskla Aktiv 74 / 100 40% 2 09.04.2027 -
Kwadwo Obeng Junior Heart of Lions Aktiv 84 / 74 40% 1 09.04.2027 -
Matvii Burenko Vorskla Aktiv 67 / 85 40% 3 08.04.2027 -
Ian Pergolettese Aktiv 105 / 66 40% 1 08.04.2027 -
Sunusi Audu New Edubiase United Aktiv 93 / 70 40% 2 07.04.2027 -
Artem Liehostaiev Kudrivka Aktiv 81 / 83 40% 1 05.04.2027 -
Maksym Hirnyi Probiy Aktiv 89 / 86 40% 1 18.02.2027 -
Callum Paterson Milton Keynes Dons Aktiv 100 / 99 40% 1 18.02.2027 -
Yehor Hunichev Feniks Aktiv 82 / 108 40% 3 21.01.2027 -
Martin Smolenski Botev Vratsa Aktiv 92 / 92 40% 1 21.01.2027 -
Diamanka Senghor Mosta Aktiv 102 / 86 40% 1 20.01.2027 -
Miullen Hibernians Aktiv 79 / 65 40% 1 20.01.2027 -
Marcelo Sliema Wanderers Aktiv 74 / 87 40% 1 17.01.2027 -
Jere Vrcić Birkirkara Aktiv 101 / 107 40% 2 16.01.2027 -
Vavá Guerreiro UCSA Aktiv 96 / 100 40% 1 15.01.2027 Mehr Infos nötig
Kenan Dervišagić Floriana Aktiv 93 / 94 40% 3 12.01.2027 -
Nikolay Zlatev Cherno More Aktiv 95 / 91 40% 1 12.01.2027 -
Mascote Botev Plovdiv Aktiv 105 / 101 40% 2 11.01.2027 -
Mamadou Diallo CSKA 1948 Aktiv 107 / 106 40% 1 11.01.2027 -
Stephen Amankona Aduana Stars Aktiv 86 / 114 40% 1 10.01.2027 -
Miloš Jovičić Zabbar St. Patrick Aktiv 78 / 81 40% 2 08.01.2027 -
Shakeone Satchwell Kryvbas Aktiv 95 / 89 40% 1 08.01.2027 -
Rodion Plaksa Kudrivka Aktiv 81 / 95 40% 4 06.01.2027 -
Kostiantyn Bychek Kudrivka Aktiv 93 / 82 40% 1 05.01.2027 Mehr Infos nötig
Danylo Knysh Victoriia Sumy Aktiv 76 / 87 40% 1 05.01.2027 -
Jhon Murillo America de Cali Aktiv 125 / 128 40% 1 04.01.2027 Mehr Infos nötig
Pietro Cianci Arezzo Aktiv 93 / 90 40% 1 03.01.2027 -
Andrii Novikov Chernihiv Aktiv 86 / 81 40% 1 03.01.2027 -
Bruno Gomes Valletta Aktiv 91 / 108 40% 2 30.12.2026 -
Prince Ukachukwu Victoria United Aktiv 88 / 89 40% 2 29.12.2026 -
Cheickna Samaké Djoliba Aktiv 118 / 88 40% 1 29.12.2026 -
Thomas Appiah Hearts of Oak Aktiv 94 / 85 40% 1 28.12.2026 -
Ayom Majok Zabbar St. Patrick Aktiv 70 / 72 40% 1 27.12.2026 -
Moses Chima Panthere du Nde Aktiv 96 / 103 40% 1 26.12.2026 -
John Okoli Aigle Royal de Moungo Aktiv 90 / 79 40% 3 23.12.2026 -
Patrick Schmidt Tarxien Rainbows Aktiv 119 / 102 40% 1 23.12.2026 -
Ruben Silva-Richards Dinamo City Aktiv 97 / 99 40% 1 22.12.2026 -
Alex Chidomere Vorskla Aktiv 97 / 92 40% 1 19.12.2026 -
Viacheslav Studenko Ahrobiznes Aktiv 83 / 67 40% 1 17.12.2026 -
Sunday Megwo Abia Warriors Aktiv 101 / 116 40% 2 11.12.2026 -
Antonio Vutov Arda Aktiv 98 / 105 40% 1 11.12.2026 -
Myroslav Trofymiuk Prykarpattia Aktiv 89 / 78 40% 2 10.12.2026 -
Jack Vale Spartak Myjava Aktiv 83 / 93 40% 2 09.12.2026 -
Máté Sajbán Diosgyor Aktiv 101 / 95 40% 1 08.12.2026 -
Malick Touré Onze Createurs Aktiv 113 / 105 40% 1 07.12.2026 -
Andrii Riznyk Ahrobiznes Aktiv 93 / 99 40% 1 04.12.2026 -
Serhii Sukhanov Obolon Aktiv 90 / 110 40% 1 01.12.2026 -
James Kirby Marsaxlokk Aktiv 74 / 93 40% 1 29.11.2026 -
Carlos Rojas Epicentr Aktiv 110 / 106 40% 2 25.11.2026 -
Danylo Polonskyi Podillia Aktiv 67 / 66 40% 1 23.11.2026 -
Friday Ubong Hearts of Oak Aktiv 100 / 99 40% 2 18.11.2026 -
Krisztian Varga Haladas Aktiv 110 / 107 40% 2 17.11.2026 -
Jaime Báez Latina Aktiv 134 / 94 40% 1 13.11.2026 -
Daniel Ivanov Spartak 1918 Aktiv 93 / 85 40% 1 13.11.2026 -
Chukwuemeka Obioma Abia Warriors Aktiv 94 / 111 40% 1 11.11.2026 -
Benjamin Tetteh NK Maribor Aktiv 114 / 121 40% 1 06.11.2026 -
Isaac Matondo Koper Aktiv 100 / 92 40% 1 06.11.2026 -
Jesper Cornelius IK Start Aktiv 100 / 88 40% 1 03.11.2026 -
Lukáš Juliš MSK Zilina Aktiv 118 / 122 40% 1 01.11.2026 -
Vladimir Nikolov Slavia Sofia Aktiv 94 / 94 40% 1 01.11.2026 -
Blaž Kramer NK Celje Aktiv 109 / 102 40% 1 31.10.2026 -
Chisom Orji Warri Wolves Aktiv 84 / 109 40% 1 27.10.2026 -
Ihor Horbach Zorya Aktiv 104 / 108 40% 1 24.10.2026 -
Alagie Wally Veres Aktiv 92 / 91 40% 1 23.10.2026 -
Kufre Ebong Niger Tornadoes Aktiv 104 / 109 40% 1 21.10.2026 -
Vladyslav Vakula Metalist Aktiv 107 / 106 40% 1 20.10.2026 -
Mykyta Dzen Probiy Aktiv 65 / 68 40% 2 16.10.2026 -
Waheed Adebayo Rangers International Aktiv 89 / 104 40% 1 14.10.2026 -
Marcos Camarda Santiago Wanderers Aktiv 118 / 120 40% 1 13.10.2026 -
Josh Kelly Zlate Moravce Aktiv 83 / 71 40% 1 10.10.2026 -
David Andrew Ikorodu City Aktiv 96 / 109 40% 1 08.10.2026 -
Michael Okoro Katsina United Aktiv 98 / 87 40% 1 08.10.2026 -
Richard Celis Zamora Aktiv 102 / 112 40% 1 07.09.2026 -
Oleksiy Khoblenko UCSA Aktiv 95 / 98 40% 1 05.09.2026 -
Pavlo Liusin Dynamo Kyiv Aktiv 65 / 97 55% 1 31.08.2026 -
Artem Prysiazhniuk Chornomorets Aktiv 82 / 88 55% 1 24.08.2026 -
Jeriel De Santis Caracas Aktiv 103 / 96 40% 1 02.08.2026 -